EUTELSAT 21B

Last updated on Sat Jun 21 2025 00:02:44 GMT+0000 (Coordinated Universal Time)

1 38992U 12062B 25171.57824263 .00000141 00000+0 00000+0 0 9999 2 38992 0.0660 7.4619 0003178 76.5284 54.7899 1.00272125 46207
UTC large
Height (km)
Speed (km/s)
/
Latitude / Longitude
Inclination (degrees)
Orbital Period (minutes)
Azimuth
Elevation
Range (km)
Doppler Factor

Next 0 passes for location: London (51.5072 / 0.1276)

Sorry there are no passes over London.